Regional Weather Roundup
Issued by NWS Northern Indiana

Home | Current Version | Previous Version | Text Only | Print | Product List | Glossary Off
Versions: 1 2 3 4 5 6 7 8 9 10 11 12 13 14 15 16 17 18 19 20 21 22 23 24 25 26 27 28 29 30 31 32 33 34 35 36 37 38 39 40 41 42 43 44 45 46 47 48 49 50

000
ASUS43 KIWX 211510
RWRIWX

KIWX WEATHER ROUNDUP
NATIONAL WEATHER SERVICE NORTHERN INDIANA
1000 AM EST TUE FEB 21 2017

NOTE: "FAIR" INDICATES FEW OR NO CLOUDS BELOW 12,000 FEET WITH NO
SIGNIFICANT WEATHER AND/OR OBSTRUCTIONS TO VISIBILITY.

* THESE STATIONS ARE NOT UNDER NWS QUALITY CONTROL. THEY ALSO MAY NOT
  REPORT WEATHER SUCH AS PRECIPITATION OR FOG.

INZ001>027-211600-
NORTHERN INDIANA

CITY           SKY/WX    TMP DP  RH WIND       PRES   REMARKS
GARY*          CLOUDY    55  54  94 SW5       29.95R FOG
VALPARAISO     LGT RAIN  54  52  93 CALM      29.96S FOG
MICHIGAN CITY* RAIN      52  52 100 S3        29.97R
LAPORTE*       RAIN      52  49  91 SW3       29.97R
KNOX*          CLOUDY    52  36  54 S10       29.97R
SOUTH BEND     LGT RAIN  52  50  93 S8        29.97S FOG
ELKHART*       PTSUNNY   52  48  87 S5        29.96F
GOSHEN         CLOUDY    53  46  77 S3        29.97S
MONTICELLO*    PTSUNNY   53  49  86 CALM      29.96F
LOGANSPORT*    CLOUDY    54  46  76 S5        29.99R
ROCHESTER*     LGT RAIN  54  50  87 S6        29.98R
WARSAW*        LGT RAIN  52  48  87 S3        29.97F
ANGOLA*        PTSUNNY   50  48  93 NW6       29.95F
FORT WAYNE     CLOUDY    53  44  71 SW3       29.98S
HUNTINGTON*    CLOUDY    54  44  69 W3        29.98S
PERU/GRISSOM   CLOUDY    56  48  76 S6        29.98R
MARION*        CLOUDY    53  44  71 SW10      30.00R

$$
INZ028>050-211600-
CENTRAL INDIANA

CITY           SKY/WX    TMP DP  RH WIND       PRES   REMARKS
LAFAYETTE      CLOUDY    55  48  77 SE6       29.97S
KOKOMO*        CLOUDY    54  46  74 S7        30.00R
MUNCIE*        CLOUDY    58  44  60 SW7       29.98F
INDIANAPOLIS   CLOUDY    55  45  68 S8        30.00S

$$
MIZ043>046-050>051-056>058-064>065-071>073-077>080-211600-
SOUTHWEST LOWER MICHIGAN

CITY           SKY/WX    TMP DP  RH WIND       PRES   REMARKS
BATTLE CREEK   LGT RAIN  50  48  93 S8        29.94F
BENTON HARBOR  RAIN      53  51  93 CALM      29.94F FOG
COLDWATER*     RAIN      49  44  81 SW6       29.98R
HILLSDALE*     RAIN      48  41  76 SW3       29.97R
HOLLAND        CLOUDY    54  51  90 S10       29.93R FOG
GRAND RAPIDS   RAIN      50  47  89 S12       29.91F FOG
KALAMAZOO      LGT RAIN  51  46  83 S8        29.95F
STURGIS*       RAIN      49  46  90 CALM      29.96F
THREE RIVERS*  CLOUDY    49  46  88 S10       29.97S

$$
OHZ001>008-015>018-024>025-211600-
NORTHWEST OHIO

CITY           SKY/WX    TMP DP  RH WIND       PRES   REMARKS
WAUSEON*       FAIR      48  41  76 CALM      29.97S
DEFIANCE       PTSUNNY   47  41  80 CALM      29.99R
FINDLAY        CLOUDY    56  42  59 S8        29.98S
TOLEDO EXPRESS CLOUDY    45  39  79 W3        29.97S
TOLEDO METCALF CLOUDY    49  42  77 SW6       29.98S
LIMA           CLOUDY    56  44  64 S10       29.99S

$$
AND FOR LAKE MICHIGAN COASTAL AND OPEN LAKE BUOY OBSERVATIONS

STATION/POSITION TEMP    WIND        PRES    VSBY  WAVE
                 AIR SEA DIR/SP/G                  HT/PER
                 (F)     (DEG/KT/KT) (MB)    (MI)  (FT/S)
CALUMET HARBOR    54     190/  3/  5 1013.2F
MICHIGAN CITY     54     140/ 10/ 11   N/A
BURNS HARBOR      54     180/  6/ 18 1014.2

$$
&&



USA.gov is the U.S. government's official web portal to all federal, state and local government web resources and services.